Weather observations for the past three days for
Newburgh / Stewart
Imperial (Metric)
Date Time (edt) Wind (mph) Vis. (mi.) Weather Sky Cond. Temperature (ºF) Relative Humidity Wind Chill (°F) Heat Index (°F) Pressure Precipitation (in)
Air Dwpt 6 hour altimeter (in) sea level (mb) 1 hr 3 hr 6 hr
Max. Min.
13 00:45 Calm 10.00 Clear SKC 59 53.6 82% 30.02 0.0
12 23:45 Calm 10.00 Clear SKC 60.8 53.6 77% 30.02 0.0
12 22:45 Calm 10.00 Clear SKC 60.8 53.6 77% 30.02 0.0
12 20:45 Calm 10.00 Clear SKC 64.4 53.6 68% 30 0.0
12 19:45 Calm 10.00 Clear SKC 69.8 51.8 53% 29.99 0.0
12 18:45 NW 6 10.00 Partly Cloudy SCT100 71.6 51.8 50% 29.99 0.0
12 17:45 W 6 10.00 Mostly Cloudy BKN050 71.6 51.8 50% 29.99 0.0
12 16:45 W 6 10.00 Mostly Cloudy BKN050 71.6 53.6 53% 30 0.0
12 15:45 NW 8 10.00 Mostly Cloudy BKN048 71.6 53.6 53% 30 0.0
12 14:45 W 6 10.00 Mostly Cloudy BKN048 71.6 50 47% 30.01 0.0
12 13:45 NW 8 10.00 Mostly Cloudy BKN048 69.8 51.8 53% 30.03 0.0
12 12:45 W 6 10.00 Overcast OVC045 69.8 53.6 57% 30.05 0.0
12 11:45 W 6 10.00 Overcast OVC035 68 53.6 60% 30.05 0.0
12 10:45 Calm 10.00 Overcast OVC030 66.2 53.6 64% 30.05 0.0
12 09:45 Calm 10.00 A Few Clouds FEW040 66.2 55.4 68% 30.05 0.0
12 08:45 Calm 10.00 Clear SKC 64.4 55.4 73% 30.05 0.0
12 07:45 Calm 10.00 Clear SKC 59 55.4 88% 30.05 0.0
12 06:45 Calm 10.00 Clear SKC 55.4 53.6 94% 30.05 0.0
12 05:45 Calm 10.00 Clear SKC 53.6 51.8 94% 30.03 0.0
12 04:45 Calm 10.00 Clear SKC 53.6 51.8 94% 30.01 0.0
12 03:45 Calm 10.00 Clear SKC 53.6 51.8 94% 30.01 0.0
12 02:45 W 5 10.00 Overcast OVC050 57.2 55.4 94% 30.02 0.0
12 01:45 W 5 10.00 Overcast OVC050 57.2 55.4 94% 30.02 0.0
11 23:45 W 5 10.00 Clear SKC 55.4 53.6 94% 30.01 0.0
11 22:45 Calm 10.00 Clear SKC 59 53.6 82% 30 0.0
11 21:45 Calm 10.00 Clear SKC 60.8 53.6 77% 29.99 0.0
11 20:45 NE 7 10.00 A Few Clouds FEW070 62.6 53.6 73% 29.97 0.0
11 19:45 NE 7 10.00 Mostly Cloudy BKN050 66.2 53.6 64% 29.94 0.0
11 18:45 NE 7 10.00 Mostly Cloudy BKN050 68 55.4 64% 29.96 0.0
11 17:45 N 9 10.00 Mostly Cloudy BKN050 68 53.6 60% 29.94 0.0
11 16:45 N 5 10.00 Mostly Cloudy BKN037 68 53.6 60% 29.94 0.0
11 15:45 Calm 10.00 Overcast OVC035 66.2 53.6 64% 29.95 0.0
11 14:45 Vrbl 6 10.00 Overcast OVC035 66.2 51.8 60% 29.94 0.0
11 13:45 N 7 10.00 Overcast OVC050 66.2 51.8 60% 29.94 0.0
11 11:55 W 8 10.00 Overcast OVC050 64.4 51.8 64% 29.94 0.0
11 10:45 W 8 10.00 Overcast OVC050 64.4 51.8 64% 29.94 0.0
11 09:45 Calm 10.00 Partly Cloudy SCT050 62.6 51.8 68% 29.93 0.0
11 08:45 Calm 10.00 Partly Cloudy SCT050 62.6 51.8 68% 29.93 0.0
11 07:45 Calm 10.00 Partly Cloudy SCT050 62.6 53.6 73% 29.93 0.0
11 06:45 Calm 10.00 Partly Cloudy SCT050 57.2 51.8 82% 29.91 0.0
11 05:45 W 6 10.00 Partly Cloudy SCT050 53.6 51.8 94% 29.88 0.0
11 04:45 W 5 10.00 Partly Cloudy SCT040 55.4 51.8 88% 29.87 0.0
11 03:45 SW 6 10.00 Partly Cloudy SCT030 53.6 51.8 94% 29.85 0.0
11 02:45 W 5 10.00 Partly Cloudy SCT030 55.4 51.8 88% 29.84 0.0
11 01:45 Calm 10.00 A Few Clouds FEW006 55.4 51.8 88% 29.84 0.0
11 00:45 Calm 10.00 A Few Clouds FEW055 59 51.8 77% 29.83 0.0
10 23:45 Calm 10.00 Mostly Cloudy BKN090 59 51.8 77% 29.81 0.0
10 22:45 NW 6 10.00 Mostly Cloudy BKN070 62.6 51.8 68% 29.79 0.0
10 21:45 NW 6 10.00 Mostly Cloudy BKN070 62.6 51.8 68% 29.77 0.0
10 20:45 NW 6 10.00 Mostly Cloudy BKN080 64.4 51.8 64% 29.74 0.0
10 19:45 NW 13 10.00 Mostly Cloudy BKN070 66.2 51.8 60% 29.72 0.0
10 18:45 NW 13 10.00 Partly Cloudy SCT070 68 50 53% 29.71 0.0
10 17:45 NW 14 10.00 Partly Cloudy SCT070 69.8 50 50% 29.7 0.0
10 16:45 NW 17 10.00 Partly Cloudy SCT070 68 50 53% 29.7 0.0
10 15:45 NW 18 10.00 Mostly Cloudy BKN060 68 51.8 56% 29.69 0.0
10 14:45 NW 17 10.00 Mostly Cloudy BKN060 69.8 51.8 53% 29.68 0.0
10 13:45 W 13 10.00 Mostly Cloudy BKN050 71.6 51.8 50% 29.67 0.0
10 12:45 NW 10 10.00 Mostly Cloudy SCT025 BKN040 69.8 53.6 57% 29.65 0.0
10 11:45 NW 12 10.00 Mostly Cloudy SCT025 BKN040 68 50 53% 29.65 0.0
10 10:45 NW 14 10.00 Mostly Cloudy SCT025 BKN040 210.2 51.8 1% 103 29.65 0.0
10 09:45 W 15 10.00 Mostly Cloudy BKN030 64.4 53.6 68% 29.64 0.0
10 08:45 W 9 10.00 Partly Cloudy SCT030 62.6 53.6 73% 29.64 0.0
10 07:45 W 13 10.00 Partly Cloudy SCT050 59 53.6 82% 29.64 0.0
10 06:45 W 10 10.00 Partly Cloudy SCT055 55.4 51.8 88% 29.64 0.0
10 05:45 W 7 10.00 Clear SKC 53.6 51.8 94% 29.62 0.0
10 04:45 W 7 10.00 Clear SKC 55.4 51.8 88% 29.61 0.0
Date Time (edt) Wind (mph) Vis. (mi.) Weather Sky Cond. Air Dwpt Max. Min. Relative Humidity Wind Chill (°F) Heat Index (°F) altimeter (in) sea level (mb) 1 hr 3 hr 6 hr
6 hour
Temperature (ºF) Pressure Precipitation (in)